Location: Robert Brownlee Observatory
(34.2308°N, 117.2089°W)
Time: 18:59:09
(UTC-08:00)

Cosmos 1943 - Visible Passes

Search period start: 23 January 2017 00:00
Search period end: 02 February 2017 00:00
Orbit: 832 x 852 km, 71.0° (Epoch: 23 January)

Date Brightness Start Highest point End Pass type
(mag) Time Alt. Az. Time Alt. Az. Time Alt. Az.
23 Jan 3.9 05:13:38 10° N 05:19:13 54° ENE 05:24:45 10° SE visible
23 Jan 4.2 18:18:21 10° SSE 18:22:46 24° E 18:23:49 23° E visible
23 Jan 4.5 20:01:14 10° SW 20:05:43 37° W 20:05:43 37° W visible
24 Jan 4.0 04:58:41 10° N 05:04:14 51° ENE 05:09:44 10° SE visible
24 Jan 4.3 18:03:32 10° SSE 18:07:49 22° E 18:10:29 16° ENE visible
24 Jan 4.3 19:46:11 10° SW 19:51:31 41° WNW 19:52:24 39° NW visible
25 Jan 4.0 04:44:44 15° N 04:49:14 48° ENE 04:54:42 10° SE visible
25 Jan 4.4 17:48:43 10° SSE 17:52:52 21° E 17:57:01 10° NE visible
25 Jan 4.2 19:31:09 10° SW 19:36:31 43° WNW 19:39:01 28° NNW visible
26 Jan 4.1 04:31:01 23° N 04:34:15 45° ENE 04:39:40 10° SE visible
26 Jan 4.5 06:13:50 10° NW 06:17:53 20° W 06:21:54 10° SW visible
26 Jan 4.1 19:16:06 10° SW 19:21:31 46° WNW 19:25:34 18° N visible
27 Jan 4.2 04:17:24 33° NNE 04:19:16 43° ENE 04:24:38 10° SE visible
27 Jan 4.4 05:59:18 12° WNW 06:02:56 21° W 06:07:06 10° SSW visible
27 Jan 4.1 19:01:04 10° SW 19:06:32 49° WNW 19:12:01 10° N visible
28 Jan 4.3 04:03:53 40° NE 04:04:16 41° ENE 04:09:35 10° SE visible
28 Jan 4.3 05:45:48 18° WNW 05:47:58 23° W 05:52:17 10° SSW visible
28 Jan 4.0 18:46:02 10° SW 18:51:33 51° WNW 18:57:06 10° N visible
29 Jan 4.6 03:50:29 34° E 03:50:29 34° E 03:54:32 10° SE visible
29 Jan 4.2 05:32:23 24° W 05:33:01 24° W 05:37:27 10° SSW visible
29 Jan 3.9 18:31:01 10° SW 18:36:33 55° WNW 18:42:09 10° NNE visible
30 Jan 5.2 03:37:08 23° ESE 03:37:08 23° ESE 03:39:28 10° SE visible
30 Jan 4.3 05:19:02 24° WSW 05:19:02 24° WSW 05:22:37 10° SSW visible
30 Jan 3.8 18:16:00 10° SW 18:21:33 58° WNW 18:27:11 10° NNE visible
31 Jan 5.8 03:23:49 13° SE 03:23:49 13° SE 03:24:24 10° SE visible
31 Jan 4.7 05:05:43 19° SW 05:05:43 19° SW 05:07:46 10° SSW visible
31 Jan 3.8 18:00:59 10° SSW 18:06:34 61° WNW 18:12:13 10° NNE visible
01 Feb 5.3 04:52:24 12° SSW 04:52:24 12° SSW 04:52:55 10° SSW visible
01 Feb 3.7 17:45:58 10° SSW 17:51:35 65° WNW 17:57:15 10° NNE visible
